Location: Emporia
(38.4040°N, 96.1810°W)
Time: 19:17:34
(UTC-05:00)

Amateur Radio Satellites - All Passes

Search period start: 28 August 2015 18:47
Search period end: 29 August 2015 18:47
Location: Emporia, 38.4040°N, 96.1810°W

Satellite Date Start Highest point End Downlink Frequencies (MHz)
Time Altitude Azimuth
CUBESAT XI-V 28 Aug 18:53:38 18:57:40 30° 95° (E) 19:01:46 437.345
O/OREOS (USA 219) 28 Aug 19:06:19 19:06:30 10° 99° (E) 19:06:59 437.305
RS-15 28 Aug 19:08:39 19:19:05 45° 315° (NW) 19:29:50 29.354- 29.394
AIST 1 28 Aug 19:13:58 19:14:57 11° 68° (ENE) 19:16:11
CUTE-I 28 Aug 19:31:12 19:36:17 44° 261° (W) 19:41:21 437.470
DOVE 4 28 Aug 19:38:20 19:39:34 11° 63° (ENE) 19:41:07 437.250
SRMSAT 28 Aug 19:45:24 19:47:14 11° 185° (S) 19:49:02 437.500
BRITE-PL 28 Aug 19:54:26 19:58:29 46° 73° (ENE) 20:02:50 437.365/2234.400
CUTE 1.7 + AOD 2 28 Aug 20:15:40 20:18:35 18° 69° (ENE) 20:21:37 437.475
HO-68 28 Aug 20:27:50 20:34:32 47° 68° (ENE) 20:41:22 435.675
Cubesat XI-IV 28 Aug 20:28:03 20:30:45 13° 271° (W) 20:33:08 437.490
CANX-2 28 Aug 20:28:16 20:31:55 28° 71° (ENE) 20:35:38 2200.000
STRAND 1 28 Aug 20:30:55 20:36:02 77° 102° (ESE) 20:41:09 437.568
CUBESAT XI-V 28 Aug 20:31:13 20:35:01 25° 290° (WNW) 20:38:44 437.345
O/OREOS (USA 219) 28 Aug 20:40:53 20:45:23 67° 292° (WNW) 20:49:57 437.305
GOMX 1 28 Aug 20:41:19 20:45:41 88° 85° (E) 20:50:24 467.674
Cosmos 2491 28 Aug 20:45:33 20:53:53 47° 75° (ENE) 21:02:17 435.465 / 435.565
CINEMA 3 28 Aug 20:47:18 20:51:06 26° 69° (ENE) 20:55:08 145.822/145.860
AIST 1 28 Aug 20:48:50 20:53:04 58° 265° (W) 20:57:20
PRISM 28 Aug 20:53:41 20:57:47 75° 285° (WNW) 21:01:52 437.425
YUBILEINY 28 Aug 20:54:38 21:00:51 23° 83° (E) 21:07:30 435.215
SEEDS 28 Aug 20:55:50 20:59:49 40° 73° (ENE) 21:03:50 437.485
CUBEBUG 2 28 Aug 21:02:34 21:05:32 18° 67° (ENE) 21:08:42 437.445
DOVE 4 28 Aug 21:12:12 21:16:40 73° 259° (W) 21:21:26 437.250
UWE-3 28 Aug 21:16:51 21:20:00 19° 67° (ENE) 21:23:20 435.000/436.395/437.385
ZACube-1 28 Aug 21:18:47 21:21:15 15° 66° (ENE) 21:23:56 437.345
COMPASS 1 28 Aug 21:23:31 21:27:42 67° 76° (ENE) 21:31:54 437.405
FUNcube-1 28 Aug 21:25:26 21:28:17 17° 67° (ENE) 21:31:18 145.935
RS-15 28 Aug 21:28:14 21:35:40 19° 347° (NNW) 21:43:07 29.354- 29.394
BRITE-PL 28 Aug 21:35:14 21:37:29 13° 272° (W) 21:39:34 437.365/2234.400
AAUSAT CUBESAT 2 28 Aug 21:36:53 21:41:05 81° 77° (ENE) 21:45:18 437.432
CUTE 1.7 + AOD 2 28 Aug 21:50:17 21:54:15 35° 263° (W) 21:58:12 437.475
CANX-2 28 Aug 22:04:23 22:07:51 23° 266° (W) 22:11:12 2200.000
DX 1 28 Aug 22:07:18 22:08:25 11° 64° (ENE) 22:09:46 434.975-435.025
STRAND 1 28 Aug 22:12:26 22:14:40 13° 297° (WNW) 22:16:39 437.568
HO-68 28 Aug 22:16:11 22:22:29 32° 265° (W) 22:28:40 435.675
Oscar 11 28 Aug 22:17:31 22:21:52 81° 258° (WSW) 22:26:15 145.826/435.025
UKube-1 28 Aug 22:24:02 22:26:29 16° 66° (ENE) 22:29:08 .
CINEMA 3 28 Aug 22:24:11 22:28:12 29° 266° (W) 22:32:20 145.822/145.860
DELFI C3 28 Aug 22:26:03 22:30:07 83° 79° (ENE) 22:34:11 145.870
HUMSAT D 28 Aug 22:31:21 22:35:13 34° 72° (ENE) 22:39:10 437.325/437.525
SEEDS 28 Aug 22:33:12 22:35:50 15° 269° (W) 22:38:17 437.485
CUBEBUG 2 28 Aug 22:37:28 22:41:51 45° 262° (W) 22:46:22 437.445
VELOX 1 28 Aug 22:42:36 22:45:22 17° 67° (ENE) 22:48:18 145.980
Cosmos 2491 28 Aug 22:42:50 22:50:33 35° 273° (W) 22:58:08 435.465 / 435.565
Cosmos 2504 28 Aug 22:44:23 22:47:23 13° 77° (ENE) 22:51:07 435.465 / 435.565
YUBILEINY 28 Aug 22:48:14 22:56:58 69° 280° (W) 23:05:47 435.215
TIGRISAT 28 Aug 22:49:07 22:50:56 13° 88° (E) 22:53:01 435.000
UWE-3 28 Aug 22:51:57 22:56:14 40° 263° (W) 23:00:36 435.000/436.395/437.385
ZACube-1 28 Aug 22:52:48 22:57:12 52° 261° (W) 23:01:40 437.345
FUNcube-1 28 Aug 22:59:56 23:04:14 44° 262° (W) 23:08:37 145.935
ANTELSAT 28 Aug 23:03:33 23:06:47 19° 92° (E) 23:10:06 437.575/2403.000
AUBIESAT-1 28 Aug 23:09:45 23:11:03 12° 93° (E) 23:12:31 437.475
M-CUBED/EXP-1 PRIME 28 Aug 23:10:50 23:13:07 15° 95° (E) 23:15:27 437.505
ESTCUBE 1 28 Aug 23:22:19 23:26:20 34° 71° (ENE) 23:30:24 437.505/2401.250
50 SAT 28 Aug 23:29:23 23:33:19 67° 76° (ENE) 23:37:16 437.505
DX 1 28 Aug 23:39:52 23:44:09 66° 258° (WSW) 23:48:30 434.975-435.025
RS-15 28 Aug 23:45:46 23:54:06 22° 22° (NNE) 00:03:00 29.354- 29.394
AISAT 28 Aug 23:47:53 23:52:17 86° 257° (WSW) 23:56:43 437.250
UNISAT 6 28 Aug 23:53:32 23:58:09 70° 101° (E) 00:02:37 437.425
UKube-1 28 Aug 23:58:10 00:02:17 44° 261° (W) 00:06:26 .
CUBEBUG 1 28 Aug 23:59:17 00:03:33 72° 76° (ENE) 00:07:53 437.445
POLYITAN 1 29 Aug 00:06:45 00:10:39 33° 96° (E) 00:14:35 437.675
HUMSAT D 29 Aug 00:07:54 00:11:03 19° 268° (W) 00:14:06 437.325/437.525
SPROUT 29 Aug 00:08:56 00:12:28 26° 70° (ENE) 00:16:05 437.525
POPSAT HIP 1 29 Aug 00:10:42 00:14:40 36° 97° (E) 00:18:39 437.405
DUCHIFAT 1 29 Aug 00:14:16 00:18:16 38° 98° (E) 00:22:16 145.980
VELOX 1 29 Aug 00:17:28 00:21:37 41° 262° (W) 00:25:48 145.980
TIGRISAT 29 Aug 00:23:37 00:28:09 56° 286° (WNW) 00:32:33 435.000
QB50P2 29 Aug 00:26:33 00:30:50 58° 101° (E) 00:35:02 145.880/145.840
NANOSAT C BR1 29 Aug 00:30:19 00:34:35 62° 101° (E) 00:38:49 145.865
Cosmos 2504 29 Aug 00:30:21 00:38:17 79° 95° (E) 00:46:48 435.465 / 435.565
BEESAT 3 29 Aug 00:31:52 00:34:40 18° 47° (NE) 00:37:32 437.485
BUGSAT 1 29 Aug 00:36:54 00:40:57 43° 99° (E) 00:45:01 437.445
BEESAT 2 29 Aug 00:38:57 00:41:34 17° 46° (NE) 00:44:16 435.950
ANTELSAT 29 Aug 00:39:29 00:43:44 36° 289° (WNW) 00:47:50 437.575/2403.000
AUBIESAT-1 29 Aug 00:42:20 00:46:12 44° 292° (WNW) 00:49:44 437.475
QB50P1 29 Aug 00:42:29 00:46:48 88° 102° (ESE) 00:51:06 145.935-145.965
M-CUBED/EXP-1 PRIME 29 Aug 00:44:24 00:48:10 35° 294° (WNW) 00:51:37 437.505
CUSAT 1 29 Aug 00:47:00 00:50:06 31° 90° (E) 00:54:05 437.405
DANDE 29 Aug 00:51:32 00:53:38 17° 86° (E) 00:56:10 436.750
YUBILEINY 29 Aug 00:52:15 00:55:55 12° 303° (WNW) 00:58:53 435.215
ESTCUBE 1 29 Aug 00:59:54 01:03:18 20° 267° (W) 01:06:35 437.505/2401.250
SWISSCUBE 29 Aug 01:07:50 01:10:10 14° 65° (ENE) 01:12:43 437.505
TISAT 1 29 Aug 01:25:37 01:29:47 70° 258° (WSW) 01:34:01 437.305
UNISAT 6 29 Aug 01:32:45 01:34:20 11° 296° (WNW) 01:35:40 437.425
SO-50 29 Aug 01:37:34 01:41:05 21° 111° (ESE) 01:44:49 436.795
Oscar 19 29 Aug 01:40:08 01:42:42 14° 89° (E) 01:45:32 437.125/150
ITUPSAT 1 29 Aug 01:42:46 01:46:47 28° 69° (ENE) 01:50:54 437.325
POLYITAN 1 29 Aug 01:43:09 01:46:21 20° 292° (WNW) 01:49:25 437.675
SPROUT 29 Aug 01:44:58 01:48:30 24° 266° (W) 01:51:59 437.525
POPSAT HIP 1 29 Aug 01:47:15 01:50:18 18° 292° (WNW) 01:53:12 437.405
DUCHIFAT 1 29 Aug 01:50:53 01:53:47 17° 292° (WNW) 01:56:33 145.980
RS-15 29 Aug 01:58:17 02:09:55 59° 51° (NE) 02:22:00 29.354- 29.394
QB50P2 29 Aug 02:04:28 02:06:15 12° 295° (WNW) 02:07:49 145.880/145.840
PCSat 29 Aug 02:08:08 02:11:47 19° 107° (ESE) 02:15:39 145.827
NANOSAT C BR1 29 Aug 02:08:24 02:09:56 11° 295° (WNW) 02:11:14 145.865
BEESAT 3 29 Aug 02:08:59 02:12:47 40° 244° (WSW) 02:16:30 437.485
BUGSAT 1 29 Aug 02:13:29 02:16:05 16° 293° (WNW) 02:18:32 437.445
BEESAT 2 29 Aug 02:15:59 02:19:53 46° 244° (WSW) 02:23:42 435.950
BEESAT 29 Aug 02:17:21 02:22:05 66° 75° (ENE) 02:26:50 436.000
Cosmos 2504 29 Aug 02:25:42 02:31:40 21° 296° (WNW) 02:37:28 435.465 / 435.565
AIST 2 29 Aug 02:29:22 02:33:23 44° 55° (NE) 02:37:20 435.215
CUSAT 1 29 Aug 02:30:47 02:33:04 15° 298° (WNW) 02:35:32 437.405
ITAMSAT 1 29 Aug 02:33:42 02:33:58 10° 87° (E) 02:34:38 435.822/435.867
DANDE 29 Aug 02:34:12 02:36:38 18° 294° (WNW) 02:39:25 436.750
SWISSCUBE 29 Aug 02:42:51 02:47:35 61° 260° (W) 02:52:18 437.505
KKS-1 29 Aug 02:45:54 02:49:06 20° 68° (ENE) 02:52:26 437.445
SO-50 29 Aug 03:16:47 03:21:21 43° 307° (NW) 03:26:03 436.795
Oscar 19 29 Aug 03:17:25 03:22:34 63° 286° (WNW) 03:27:42 437.125/150
ITUPSAT 1 29 Aug 03:20:30 03:24:39 28° 265° (W) 03:28:43 437.325
Gurwin Techsat 1B 29 Aug 03:32:11 03:37:24 54° 100° (E) 03:42:36 435.225
GONETS M04 29 Aug 03:35:08 03:43:31 58° 92° (E) 03:52:00
PCSat 29 Aug 03:49:32 03:54:49 53° 302° (WNW) 04:00:08 145.827
JAS-2 29 Aug 03:54:21 04:01:02 43° 95° (E) 04:07:00 435.910
BEESAT 29 Aug 03:58:41 04:00:28 12° 271° (W) 04:01:56 436.000
ITAMSAT 1 29 Aug 04:09:01 04:14:14 83° 282° (WNW) 04:19:25 435.822/435.867
AIST 2 29 Aug 04:09:06 04:11:36 15° 250° (WSW) 04:13:56 435.215
STARS 29 Aug 04:10:29 04:14:53 80° 257° (WSW) 04:19:20 437.465
MOZHAYETS 4 29 Aug 04:11:02 04:14:36 23° 69° (ENE) 04:18:17
RS-15 29 Aug 04:11:15 04:22:10 42° 251° (WSW) 04:33:05 29.354- 29.394
KKS-1 29 Aug 04:21:26 04:25:31 35° 263° (W) 04:29:36 437.445
Cosmos 2499 29 Aug 04:42:54 04:50:27 41° 88° (E) 04:58:32 435.465 / 435.565
Gurwin Techsat 1B 29 Aug 05:13:19 05:17:00 19° 295° (WNW) 05:20:29 435.225
O/OREOS (USA 219) 29 Aug 05:14:08 05:17:13 18° 56° (NE) 05:20:25 437.305
AO-7 29 Aug 05:21:08 05:29:24 68° 104° (ESE) 05:37:38 29.400- 29.500
HORYU 2 29 Aug 05:24:38 05:29:08 78° 102° (ESE) 05:33:33 437.375
VERMONT LUNAR 29 Aug 05:29:24 05:32:13 38° 155° (SSE) 05:35:02 437.305
GONETS M04 29 Aug 05:33:34 05:40:56 29° 292° (WNW) 05:48:07
JAS-2 29 Aug 05:39:39 05:45:54 32° 295° (WNW) 05:51:26 435.910
MOZHAYETS 4 29 Aug 05:47:31 05:51:41 32° 264° (W) 05:55:49
CUBESAT XI-V 29 Aug 05:55:55 05:59:36 25° 69° (ENE) 06:03:22 437.345
STRAND 1 29 Aug 06:10:30 06:11:48 11° 62° (ENE) 06:13:24 437.568
Cosmos 2499 29 Aug 06:35:47 06:43:37 41° 287° (WNW) 06:51:47 435.465 / 435.565
PHONESAT 2.4 29 Aug 06:50:28 06:52:56 19° 148° (SSE) 06:55:26 2401.200-2431.200
O/OREOS (USA 219) 29 Aug 06:52:31 06:56:56 45° 254° (WSW) 07:01:17 437.305
Cubesat XI-IV 29 Aug 07:03:57 07:08:35 30° 95° (E) 07:13:17 437.490
VERMONT LUNAR 29 Aug 07:05:39 07:08:36 63° 351° (N) 07:11:34 437.305
AO-7 29 Aug 07:14:56 07:21:39 27° 302° (WNW) 07:28:06 29.400- 29.500
CUBESAT XI-V 29 Aug 07:32:55 07:36:56 29° 265° (W) 07:40:56 437.345
PRISM 29 Aug 07:41:54 07:45:57 62° 75° (ENE) 07:50:00 437.425
STRAND 1 29 Aug 07:45:15 07:50:22 86° 257° (WSW) 07:55:30 437.568
CUTE-I 29 Aug 07:49:25 07:54:46 83° 102° (ESE) 08:00:06 437.470
BRITE-PL 29 Aug 08:00:14 08:04:20 22° 92° (E) 08:08:42 437.365/2234.400
PHONESAT 2.4 29 Aug 08:27:07 08:30:31 79° 163° (SSE) 08:33:56 2401.200-2431.200
VERMONT LUNAR 29 Aug 08:42:15 08:45:13 62° 8° (N) 08:48:11 437.305
Cubesat XI-IV 29 Aug 08:43:59 08:48:40 31° 291° (WNW) 08:53:16 437.490
GOMX 1 29 Aug 08:44:13 08:49:05 34° 95° (E) 08:54:03 467.674
YUBILEINY 29 Aug 09:00:20 09:09:00 57° 77° (ENE) 09:17:37 435.215
COMPASS 1 29 Aug 09:10:32 09:11:53 12° 89° (E) 09:13:30 437.405
DOVE 4 29 Aug 09:12:30 09:17:25 38° 96° (E) 09:22:20 437.250
AIST 1 29 Aug 09:16:23 09:20:38 89° 83° (E) 09:24:54
AAUSAT CUBESAT 2 29 Aug 09:22:48 09:24:52 14° 90° (E) 09:27:07 437.432
CUTE-I 29 Aug 09:31:56 09:34:13 12° 298° (WNW) 09:36:13 437.470
CUTE 1.7 + AOD 2 29 Aug 09:36:41 09:40:41 41° 97° (E) 09:44:40 437.475
BRITE-PL 29 Aug 09:37:48 09:43:02 48° 287° (WNW) 09:48:27 437.365/2234.400
HO-68 29 Aug 09:44:14 09:51:17 56° 101° (E) 09:58:19 435.675
Cosmos 2491 29 Aug 09:44:32 09:52:56 57° 91° (E) 10:01:24 435.465 / 435.565
TIGRISAT 29 Aug 09:47:41 09:48:40 11° 63° (ENE) 09:49:55 435.000
CANX-2 29 Aug 09:50:03 09:54:17 68° 100° (E) 09:58:29 2200.000
AUBIESAT-1 29 Aug 09:54:06 09:57:13 18° 62° (ENE) 10:00:28 437.475
M-CUBED/EXP-1 PRIME 29 Aug 09:55:56 09:59:32 22° 63° (ENE) 10:03:15 437.505
ANTELSAT 29 Aug 10:01:33 10:04:19 16° 66° (ENE) 10:07:18 437.575/2403.000
PHONESAT 2.4 29 Aug 10:05:09 10:08:31 58° 359° (N) 10:11:53 2401.200-2431.200
Oscar 11 29 Aug 10:07:11 10:10:20 20° 93° (E) 10:13:35 145.826/435.025
DELFI C3 29 Aug 10:08:30 10:09:54 12° 90° (E) 10:11:31 145.870
SO-50 29 Aug 10:10:10 10:13:19 17° 42° (NE) 10:16:34 436.795
SEEDS 29 Aug 10:16:54 10:21:06 82° 283° (WNW) 10:25:16 437.485
VERMONT LUNAR 29 Aug 10:18:47 10:21:37 40° 204° (SSW) 10:24:28 437.305
CINEMA 3 29 Aug 10:19:41 10:24:44 78° 102° (ESE) 10:29:39 145.822/145.860
Cosmos 2504 29 Aug 10:19:53 10:26:20 24° 66° (ENE) 10:32:51 435.465 / 435.565
GOMX 1 29 Aug 10:22:21 10:27:06 31° 290° (WNW) 10:31:49 467.674
CUBEBUG 2 29 Aug 10:30:03 10:34:34 43° 98° (E) 10:38:56 437.445
ISS 29 Aug 10:42:11 10:45:24 75° 322° (NW) 10:48:39 145.825
ZACube-1 29 Aug 10:43:11 10:47:16 34° 96° (E) 10:51:19 437.345
UWE-3 29 Aug 10:43:13 10:47:40 46° 98° (E) 10:52:00 435.000/436.395/437.385
COMPASS 1 29 Aug 10:43:53 10:47:56 50° 286° (WNW) 10:51:55 437.405
FUNcube-1 29 Aug 10:49:52 10:54:05 39° 97° (E) 10:58:12 145.935
UNISAT 6 29 Aug 10:50:31 10:55:02 52° 74° (ENE) 10:59:37 437.425
DOVE 4 29 Aug 10:50:34 10:54:58 26° 291° (WNW) 10:59:14 437.250
AAUSAT CUBESAT 2 29 Aug 10:56:48 11:00:44 42° 286° (WNW) 11:04:36 437.432
PCSat 29 Aug 10:57:06 10:59:53 14° 42° (NE) 11:02:52 145.827
YUBILEINY 29 Aug 10:58:01 11:05:23 30° 275° (W) 11:12:27 435.215
POLYITAN 1 29 Aug 10:58:44 11:01:57 22° 69° (ENE) 11:05:17 437.675
POPSAT HIP 1 29 Aug 11:02:25 11:05:43 23° 70° (ENE) 11:09:08 437.405
DUCHIFAT 1 29 Aug 11:05:28 11:08:49 24° 70° (ENE) 11:12:16 145.980
CUTE 1.7 + AOD 2 29 Aug 11:13:40 11:16:17 16° 292° (WNW) 11:18:44 437.475
QB50P2 29 Aug 11:17:59 11:21:51 35° 72° (ENE) 11:25:47 145.880/145.840
TIGRISAT 29 Aug 11:20:09 11:24:47 79° 258° (WSW) 11:29:32 435.000
NANOSAT C BR1 29 Aug 11:21:18 11:25:10 37° 72° (ENE) 11:29:07 145.865
CUSAT 1 29 Aug 11:21:35 11:28:38 40° 73° (ENE) 11:36:19 437.405
BUGSAT 1 29 Aug 11:25:58 11:29:12 24° 70° (ENE) 11:32:33 437.445
AUBIESAT-1 29 Aug 11:26:56 11:31:33 51° 256° (WSW) 11:36:09 437.475
DANDE 29 Aug 11:28:21 11:34:46 32° 72° (ENE) 11:42:09 436.750
M-CUBED/EXP-1 PRIME 29 Aug 11:29:31 11:34:02 41° 258° (WSW) 11:38:34 437.505
DX 1 29 Aug 11:30:10 11:33:39 23° 95° (E) 11:37:12 434.975-435.025
HO-68 29 Aug 11:32:42 11:38:39 28° 297° (WNW) 11:44:25 435.675
QB50P1 29 Aug 11:33:28 11:37:34 52° 74° (ENE) 11:41:45 145.935-145.965
ANTELSAT 29 Aug 11:36:10 11:40:42 50° 261° (W) 11:45:19 437.575/2403.000
AISAT 29 Aug 11:40:44 11:44:00 20° 93° (E) 11:47:23 437.250
DELFI C3 29 Aug 11:41:26 11:45:16 45° 286° (WNW) 11:49:04 145.870
Oscar 11 29 Aug 11:42:44 11:46:35 31° 289° (WNW) 11:50:22 145.826/435.025
Cosmos 2491 29 Aug 11:42:54 11:50:20 29° 291° (WNW) 11:57:34 435.465 / 435.565
PHONESAT 2.4 29 Aug 11:43:07 11:46:32 86° 199° (SSW) 11:49:57 2401.200-2431.200
UKube-1 29 Aug 11:47:03 11:50:56 32° 97° (E) 11:54:51 .
SO-50 29 Aug 11:49:32 11:54:28 72° 241° (WSW) 11:59:13 436.795
CUBEBUG 1 29 Aug 11:50:53 11:53:20 15° 91° (E) 11:55:59 437.445
HUMSAT D 29 Aug 11:51:56 11:56:12 79° 102° (ESE) 12:00:23 437.325/437.525
CINEMA 3 29 Aug 11:59:12 12:01:17 12° 296° (WNW) 12:03:06 145.822/145.860
CUBEBUG 2 29 Aug 12:07:38 12:10:54 18° 293° (WNW) 12:13:58 437.445
VELOX 1 29 Aug 12:09:06 12:13:18 39° 98° (E) 12:17:31 145.980
Cosmos 2504 29 Aug 12:10:58 12:19:27 69° 267° (W) 12:27:23 435.465 / 435.565
ZACube-1 29 Aug 12:19:59 12:23:26 21° 292° (WNW) 12:26:41 437.345
ISS 29 Aug 12:20:23 12:22:17 14° 340° (NNW) 12:24:07 145.825
UWE-3 29 Aug 12:20:50 12:23:49 17° 293° (WNW) 12:26:36 435.000/436.395/437.385
FUNcube-1 29 Aug 12:26:56 12:30:06 19° 293° (WNW) 12:33:05 145.935
UNISAT 6 29 Aug 12:29:27 12:32:10 15° 270° (W) 12:34:40 437.425
POLYITAN 1 29 Aug 12:33:56 12:37:42 29° 264° (W) 12:41:27 437.675
POPSAT HIP 1 29 Aug 12:37:49 12:41:29 27° 265° (W) 12:45:07 437.405
PCSat 29 Aug 12:38:44 12:44:12 88° 68° (ENE) 12:49:37 145.827
50 SAT 29 Aug 12:40:17 12:44:08 63° 285° (WNW) 12:47:55 437.505
DUCHIFAT 1 29 Aug 12:40:57 12:44:32 26° 265° (W) 12:48:05 145.980
ESTCUBE 1 29 Aug 12:52:32 12:57:03 88° 284° (WNW) 13:01:33 437.505/2401.250
QB50P2 29 Aug 12:54:57 12:57:54 17° 268° (W) 13:00:42 145.880/145.840
Oscar 19 29 Aug 12:55:22 12:58:50 19° 65° (ENE) 13:02:29 437.125/150
NANOSAT C BR1 29 Aug 12:58:21 13:01:11 17° 268° (W) 13:03:52 145.865
BUGSAT 1 29 Aug 13:01:18 13:04:37 24° 266° (W) 13:07:54 437.445
CUSAT 1 29 Aug 13:04:01 13:11:14 44° 268° (W) 13:18:52 437.405
DX 1 29 Aug 13:06:05 13:09:53 29° 290° (WNW) 13:13:37 434.975-435.025
DANDE 29 Aug 13:10:52 13:18:07 55° 265° (W) 13:26:17 436.750
QB50P1 29 Aug 13:12:08 13:13:50 12° 271° (W) 13:15:16 145.935-145.965
TISAT 1 29 Aug 13:12:13 13:15:20 20° 93° (E) 13:18:34 437.305
AISAT 29 Aug 13:16:36 13:20:40 34° 289° (WNW) 13:24:42 437.250
PHONESAT 2.4 29 Aug 13:21:28 13:24:09 22° 211° (SSW) 13:26:49 2401.200-2431.200
UKube-1 29 Aug 13:23:35 13:26:53 21° 292° (WNW) 13:30:05 .
CUBEBUG 1 29 Aug 13:25:44 13:29:57 45° 287° (WNW) 13:34:09 437.445
SPROUT 29 Aug 13:32:00 13:36:19 63° 101° (E) 13:40:37 437.525
VELOX 1 29 Aug 13:46:28 13:49:35 18° 293° (WNW) 13:52:33 145.980
GONETS M04 29 Aug 13:47:43 13:54:41 26° 67° (ENE) 14:01:56
ITAMSAT 1 29 Aug 13:48:49 13:51:40 16° 64° (ENE) 13:54:44 435.822/435.867
JAS-2 29 Aug 14:04:47 14:09:57 21° 60° (ENE) 14:15:31 435.910
Cosmos 2504 29 Aug 14:08:11 14:10:11 11° 284° (WNW) 14:11:25 435.465 / 435.565
BEESAT 29 Aug 14:20:05 14:23:20 19° 92° (E) 14:26:45 436.000
PCSat 29 Aug 14:25:38 14:26:57 11° 256° (WSW) 14:27:52 145.827
AO-7 29 Aug 14:30:02 14:34:44 17° 53° (NE) 14:39:49 29.400- 29.500
Oscar 19 29 Aug 14:32:50 14:37:50 51° 260° (W) 14:42:53 437.125/150
Cosmos 2499 29 Aug 14:38:30 14:41:56 13° 57° (ENE) 14:45:56 435.465 / 435.565
SWISSCUBE 29 Aug 14:44:46 14:49:10 37° 98° (E) 14:53:35 437.505
TISAT 1 29 Aug 14:47:21 14:51:10 31° 289° (WNW) 14:54:55 437.305
Gurwin Techsat 1B 29 Aug 14:51:43 14:57:00 74° 75° (ENE) 15:02:19 435.225
SPROUT 29 Aug 15:10:23 15:11:55 11° 295° (WNW) 15:13:12 437.525
ITUPSAT 1 29 Aug 15:21:40 15:26:27 84° 104° (ESE) 15:31:12 437.325
ITAMSAT 1 29 Aug 15:25:34 15:30:42 64° 259° (WSW) 15:35:51 435.822/435.867
ISS 29 Aug 15:35:32 15:37:22 14° 20° (NNE) 15:39:14 145.825
GONETS M04 29 Aug 15:43:36 15:52:16 64° 267° (W) 16:00:55
JAS-2 29 Aug 15:46:34 15:54:06 85° 257° (WSW) 16:02:03 435.910
BEESAT 29 Aug 15:56:55 16:01:23 41° 288° (WNW) 16:05:49 436.000
BEESAT 3 29 Aug 15:59:25 16:03:19 48° 117° (ESE) 16:07:16 437.485
STARS 29 Aug 16:02:24 16:05:43 21° 93° (E) 16:09:08 437.465
BEESAT 2 29 Aug 16:07:32 16:11:23 43° 116° (ESE) 16:15:20 435.950
KKS-1 29 Aug 16:13:33 16:17:54 48° 99° (E) 16:22:15 437.445
AO-7 29 Aug 16:18:03 16:26:23 78° 71° (ENE) 16:34:45 29.400- 29.500
RS-15 29 Aug 16:20:58 16:30:37 40° 108° (ESE) 16:40:46 29.354- 29.394
HORYU 2 29 Aug 16:21:05 16:25:30 59° 74° (ENE) 16:29:57 437.375
SWISSCUBE 29 Aug 16:23:11 16:26:48 21° 293° (WNW) 16:30:18 437.505
AIST 2 29 Aug 16:27:38 16:29:42 14° 110° (ESE) 16:31:58 435.215
Cosmos 2499 29 Aug 16:28:26 16:37:10 72° 80° (E) 16:45:18 435.465 / 435.565
Gurwin Techsat 1B 29 Aug 16:35:22 16:37:39 12° 272° (W) 16:39:35 435.225
JUGNU 29 Aug 16:39:02 16:41:06 12° 181° (S) 16:43:09 437.505
ITUPSAT 1 29 Aug 17:02:53 17:03:44 10° 297° (WNW) 17:04:17 437.325
ISS 29 Aug 17:10:59 17:14:15 74° 38° (NE) 17:17:29 145.825
CUTE-I 29 Aug 17:32:55 17:35:37 15° 63° (ENE) 17:38:34 437.470
JAS-2 29 Aug 17:36:01 17:40:22 15° 276° (W) 17:44:16 435.910
STARS 29 Aug 17:38:14 17:42:14 33° 289° (WNW) 17:46:11 437.465
BEESAT 3 29 Aug 17:38:49 17:41:31 17° 314° (NW) 17:44:08 437.485
MOZHAYETS 4 29 Aug 17:43:30 17:48:03 65° 101° (E) 17:52:34
SRMSAT 29 Aug 17:44:05 17:46:01 12° 176° (S) 17:47:58 437.500
BEESAT 2 29 Aug 17:46:45 17:49:40 18° 314° (NW) 17:52:30 435.950
KKS-1 29 Aug 17:51:25 17:54:10 16° 294° (WNW) 17:56:44 437.445
HORYU 2 29 Aug 18:00:47 18:02:35 12° 271° (W) 18:04:07 437.375
AIST 2 29 Aug 18:03:44 18:07:53 52° 304° (NW) 18:12:03 435.215
AO-7 29 Aug 18:14:05 18:20:07 20° 269° (W) 18:25:44 29.400- 29.500
Cosmos 2499 29 Aug 18:23:09 18:29:30 22° 278° (W) 18:35:12 435.465 / 435.565
Cubesat XI-IV 29 Aug 18:24:25 18:29:25 44° 71° (ENE) 18:34:29 437.490
